ARIANE 5 R/B - Orbit

View from above orbital plane
View from above orbital plane
View from above satellite
View from above satellite

Ground track
Ground track

The orbit data is extracted from the following two-line orbital elements,

1 28379U 04027B   13143.48716316  .00000034  00000-0  24780-2 0  4894
2 28379 006.7133 107.9084 7298923 167.3480 009.1295 02.07905305 67223
Epoch (UTC): 23 May 2013 11:41:30
Eccentricity: 0.7298923
inclination: 6.7133°
perigee height: 626 km
apogee height: 38480 km
right ascension of ascending node: 107.9084°
argument of perigee: 167.3480°
revolutions per day: 2.07905305
mean anomaly at epoch: 9.1295°
orbit number at epoch: 6722

The dashed part of the orbit path shows where the satellite is in the earth's shadow,  

Developed and maintained by Chris Peat, Heavens-Above GmbH. Please read the updated FAQ before sending e-mail. Imprint. DLR